User: anonymous   Login
Location: Unspecified
(52.4292°N, 19.3359°E)
Time: 12:45:26
(UTC+02:00)
Language:

Tiros 1 despin weight - Orbit

View from above orbital plane
View from above orbital plane
View from above satellite
View from above satellite

Ground track
Ground track

The orbit data is extracted from the following two-line orbital elements,

1 00115U 60002D   24139.91805089  .00008254  00000-0  87481-3 0  9994
2 00115  48.1634 214.5714 0030199  92.6224 267.8148 14.89397693404571
Epoch (UTC): 18 May 2024 22:01:59
Eccentricity: 0.0030199
inclination: 48.1634°
perigee height: 579 km
apogee height: 621 km
right ascension of ascending node: 214.5714°
argument of perigee: 92.6224°
revolutions per day: 14.89397693
mean anomaly at epoch: 267.8148°
orbit number at epoch: 40457

The dashed part of the orbit path shows where the satellite is in the earth's shadow,  

DLR